Regional Weather Roundup
Issued by NWS Jackson, KY

Home | Current Version | Previous Version | Graphics & Text | Print | Product List | Glossary On
Versions: 1 2 3 4 5 6 7 8 9 10 11 12 13 14 15 16 17 18 19 20 21 22 23 24 25 26 27 28 29 30 31 32 33 34 35 36 37 38 39 40 41 42 43 44 45 46 47 48 49 50
000
ASUS43 KJKL 220605
RWRJKL

EAST KENTUCKY HOURLY WEATHER ROUNDUP
NATIONAL WEATHER SERVICE JACKSON KY
100 AM EST SAT NOV 22 2014

NOTE: "FAIR" INDICATES FEW OR NO CLOUDS BELOW 12,000 FEET WITH
NO SIGNIFICANT WEATHER AND/OR OBSTRUCTIONS TO VISIBILITY.

* THESE REPORTS ARE NOT UNDER NWS QUALITY CONTROL AND MAY NOT
  REPORT WEATHER SUCH AS PRECIPITATION AND FOG.

KYZ079-080-083-085-087-088-110-112-115-119-120-220700
...EASTERN KENTUCKY...

CITY           SKY/WX    TMP DP  RH WIND       PRES   REMARKS
JACKSON        CLEAR     30  10  43 S3        30.38F
6HR MIN TEMP:  30; 6HR MAX TEMP:  35;

LONDON         MOCLDY    28  18  66 CALM      30.40S
6HR MIN TEMP:  26; 6HR MAX TEMP:  33;

SOMERSET*      CLEAR     27  21  80 CALM      30.40F
MONTICELLO*    PTCLDY    35  21  57 CALM      30.41F
6HR MIN TEMP:  22; 6HR MAX TEMP:  35;

MIDDLESBORO*   CLEAR     24  21  87 CALM      30.44S
6HR MIN TEMP:  24; 6HR MAX TEMP:  33;

HARLAN APT*    CLEAR     28  19  69 CALM      30.42S
BIG SANDY*     CLEAR     30  14  50 CALM      30.40R
6HR MIN TEMP:  26; 6HR MAX TEMP:  32;

MOREHEAD APT*  CLEAR     30   9  40 SE7       30.40F WCI  23
$$

KYZ035-036-041-042-044-050-067-078-099-220700
...CENTRAL KENTUCKY...

CITY           SKY/WX    TMP DP  RH WIND       PRES   REMARKS
MT STERLING*   MOCLDY    30  16  55 S3        30.38F
FLEMING/MASON* PTCLDY    25  11  53 SE5       30.40S WCI  20
DANVILLE*      CLOUDY    32  19  59 S7        30.36F WCI  26
RICHMOND*      CLOUDY    27  18  69 S7        30.36F WCI  19
LEXINGTON      MOCLDY    32  14  47 SE8       30.37R WCI  25
6HR MIN TEMP:  27; 6HR MAX TEMP:  32;

FRANKFORT      MOCLDY    28  16  60 SE3       30.36F
6HR MIN TEMP:  24; 6HR MAX TEMP:  31;

$$

KYZ091>093-OHZ055-061-077-WVZ005-015-034-035-042-220700
...SOUTHERN OHIO/WEST VIRGINIA...

CITY           SKY/WX    TMP DP  RH WIND       PRES   REMARKS
COVINGTON      MOCLDY    30  13  49 SE10      30.35F WCI  21
COLUMBUS       PTCLDY    23   8  52 SE5       30.39F WCI  17
DAYTON         PTCLDY    21  13  71 SE8       30.34F WCI  11
WILMINGTON     PTCLDY    23   9  55 S7        30.36F WCI  15
HUNTINGTON     CLEAR     22  15  75 E3        30.41F
CHARLESTON     CLEAR     21  14  74 CALM      30.42F
PINEVILLE*     CLEAR     22  20  94 MISG      30.48S
BECKLEY        CLEAR     28   5  37 SE8       30.39F WCI  20
BLUEFIELD      CLEAR     29   1  30 E3        30.40R
$$

VAZ002-007-008-TNZ017-027-036-066-071-220700
...SOUTHWEST VIRGINIA/EAST TENNESSEE...

CITY           SKY/WX    TMP DP  RH WIND       PRES   REMARKS
WISE*          CLEAR     32   3  29 S5        30.39F WCI  27
JONESVILLE*    CLEAR     19  18  93 CALM      30.46S
ABINGDON*      CLEAR     28  15  60 E5        30.42S WCI  22
BRISTOL        CLEAR     24  17  74 CALM      30.44S
KNOXVILLE      PTCLDY    31  20  63 CALM      30.42F
OAK RIDGE      CLEAR     29  24  82 CALM      30.45S
CROSSVILLE     CLEAR     39  13  34 CALM      30.38F
NASHVILLE      CLOUDY    45  27  49 CALM      30.36S
$$

...KEY TO REMARKS...
VSB - VISIBILITY IN MILES
WCI - WIND CHILL INDEX
HX  - HEAT INDEX

$$


USA.gov is the U.S. government's official web portal to all federal, state and local government web resources and services.